Weather History for Trenton, NJ

Change the Weather History Date:

Friday, February 22, 2013

  Actual Average Record
Temperature  
Mean Temperature 30 °F 35 °F  
Max Temperature 37 °F 44 °F 66 °F (1997)
Min Temperature 22 °F 27 °F 8 °F (1963)
Degree Days  
Heating Degree Days 35 30  
Month to date heating degree days 742 695  
Since 1 July heating degree days 3450 3641  
Cooling Degree Days 0 0  
Month to date cooling degree days 0 0  
Year to date cooling degree days 0 0  
Moisture  
Dew Point 22 °F    
Average Humidity 67    
Maximum Humidity 82    
Minimum Humidity 52    
Precipitation  
Precipitation T in 0.09 in 1.84 in (2003)
Month to date precipitation 1.14 1.75  
Year to date precipitation 3.96 4.91  
Sea Level Pressure  
Sea Level Pressure 30.30 in    
Wind  
Wind Speed 5 mph (East)    
Max Wind Speed 12 mph    
Max Gust Speed 15 mph    
Visibility 10 miles    
Events      
T = Trace of Precipitation, MM = Missing Value Source: NWS Daily Summary

Daily Weather History Graph

Daily Weather History Graph

Search for Another Location

Airport:

Trip Planner

Search our weather history database for the weather conditions in past years. The results will help you decide how hot, cold, wet, or windy it might be!

Date:

Astronomy

Feb. 22, 2013 Rise Set
Actual Time 6:42 AM EST 5:43 PM EST
Civil Twilight 6:15 AM EST 6:10 PM EST
Nautical Twilight 5:43 AM EST 6:42 PM EST
Astronomical Twilight 5:12 AM EST 7:13 PM EST
Moon 2:52 PM EST (2/22) 4:26 AM EST (2/22)
Length of Visible Light 11h 55m
Length of Day
11h 00m
Waxing Gibbous, 90% of the Moon is Illuminated
Feb 22
Waxing Gibbous
Feb 25
Full
Mar 4
Last Quarter
Mar 11
New
Mar 19
First Quarter

Hourly Weather History & Observations

Time (EST) Temp. Windchill Dew Point Humidity Pressure Visibility Wind Dir Wind Speed Gust Speed Precip Events Conditions
12:53 AM 23.0 °F 12.4 °F 12.9 °F 65% 30.27 in 10.0 mi North 10.4 mph - N/A   Clear
1:53 AM 23.0 °F 14.7 °F 12.9 °F 65% 30.28 in 10.0 mi North 6.9 mph - N/A   Clear
2:53 AM 21.9 °F 14.5 °F 12.9 °F 68% 30.30 in 10.0 mi North 5.8 mph - N/A   Clear
3:53 AM 21.9 °F 14.5 °F 12.9 °F 68% 30.31 in 10.0 mi North 5.8 mph - N/A   Clear
4:53 AM 21.9 °F - 14.0 °F 72% 30.32 in 10.0 mi Calm Calm - N/A   Clear
5:53 AM 21.9 °F 17.2 °F 14.0 °F 72% 30.36 in 10.0 mi NNW 3.5 mph - N/A   Clear
6:53 AM 23.0 °F 15.8 °F 15.1 °F 72% 30.35 in 10.0 mi NE 5.8 mph - N/A   Clear
7:53 AM 25.0 °F 20.7 °F 16.0 °F 69% 30.38 in 10.0 mi North 3.5 mph - N/A   Clear
8:53 AM 27.0 °F 23.0 °F 17.1 °F 66% 30.40 in 10.0 mi NNE 3.5 mph - N/A   Clear
9:53 AM 30.9 °F 24.3 °F 19.0 °F 61% 30.36 in 10.0 mi East 6.9 mph - N/A   Clear
10:53 AM 33.1 °F 26.1 °F 19.9 °F 59% 30.36 in 10.0 mi East 8.1 mph - N/A   Clear
11:53 AM 34.0 °F 28.8 °F 21.0 °F 59% 30.35 in 10.0 mi ESE 5.8 mph - N/A   Clear
12:53 PM 36.0 °F 29.6 °F 21.9 °F 57% 30.31 in 10.0 mi SE 8.1 mph - N/A   Clear
1:53 PM 37.0 °F 33.3 °F 21.9 °F 54% 30.30 in 10.0 mi ESE 4.6 mph - N/A   Clear
2:53 PM 37.0 °F 33.3 °F 23.0 °F 57% 30.29 in 10.0 mi South 4.6 mph - N/A   Overcast
3:53 PM 37.0 °F 31.0 °F 23.0 °F 57% 30.29 in 10.0 mi SSE 8.1 mph - N/A   Overcast
4:53 PM 36.0 °F 30.3 °F 25.0 °F 64% 30.29 in 10.0 mi SSE 6.9 mph - N/A   Overcast
5:53 PM 35.1 °F 29.3 °F 25.0 °F 67% 30.28 in 10.0 mi SE 6.9 mph - N/A   Overcast
6:53 PM 35.1 °F 29.3 °F 26.1 °F 70% 30.29 in 10.0 mi SSE 6.9 mph - N/A   Overcast
7:38 PM 35.6 °F 31.7 °F 26.6 °F 70% 30.31 in 10.0 mi SSE 4.6 mph - N/A   Overcast
7:53 PM 35.1 °F 30.1 °F 27.0 °F 72% 30.30 in 10.0 mi SE 5.8 mph - N/A   Overcast
8:53 PM 34.0 °F 31.0 °F 27.0 °F 75% 30.28 in 10.0 mi ESE 3.5 mph - N/A   Overcast
9:37 PM 33.8 °F - 26.6 °F 75% 30.28 in 10.0 mi Calm Calm - N/A   Overcast
9:53 PM 34.0 °F - 28.0 °F 79% 30.27 in 10.0 mi Calm Calm - N/A   Overcast
10:17 PM 33.8 °F - 28.4 °F 81% 30.28 in 10.0 mi Calm Calm - N/A   Overcast
10:48 PM 33.8 °F - 28.4 °F 81% 30.27 in 10.0 mi Calm Calm - N/A   Overcast
10:53 PM 34.0 °F - 28.0 °F 79% 30.26 in 10.0 mi Calm Calm - N/A   Overcast
11:42 PM 33.8 °F 30.8 °F 28.4 °F 81% 30.25 in 9.0 mi East 3.5 mph - 0.00 in   Overcast
11:53 PM 34.0 °F 31.0 °F 28.9 °F 82% 30.24 in 10.0 mi East 3.5 mph - 0.00 in   Overcast